Location: Newark
(35.5300°N, 14.3000°E)
Time: 08:16:39
(UTC+00:00)

S-56A Canister/Altair - Pass Details

Date: 16 November 2019
Orbit: 633 x 2499 km, 38.9° (Epoch: 11 December)

Event Time Altitude Azimuth Distance (km) Brightness Sun altitude
Rises 16:59:41 0° 246° (WSW) 5,043 13.6 -13.2°
Reaches altitude 10° 17:03:30 10° 246° (WSW) 3,753 12.4 -13.9°
Maximum altitude 17:12:36 84° 161° (SSE) 1,126 8.3 -15.7°
Enters shadow 17:16:30 25° 74° (ENE) 1,809 8.8 -16.5°
